Wind_Speed
10 10 9 8 10 13 17 17 17 18 17 17 17 19 18 15 15 17 17 17 17 15 12 10 10 10 12 13 14 15 16 18 21 22 21 21 22 23 24 24 25 26 24
9 7 13 10 11 13 16 16 16 16 16 17 19 19 19 15 14 15 14 15 14 12 10 9 8 10 11 12 13 15 18 21 21 20 20 19 21 22 25 25 24 22 21
16 13 12 13 13 16 17 20 18 16 15 14 16 19 20 19 16 15 13 12 10 9 8 6 7 8 11 12 14 18 20 22 22 21 21 22 24 24 24 24 22 20 20
16 16 15 13 14 17 20 19 17 15 15 14 13 13 15 17 16 14 13 11 9 7 6 6 7 10 12 15 17 19 20 23 24 23 24 24 24 23 23 22 21 21 21
16 16 18 18 16 18 20 19 16 13 13 11 12 13 12 14 15 13 11 9 8 6 7 11 11 13 15 16 17 21 24 25 24 23 23 23 23 24 23 22 21 21 21
17 16 17 18 17 17 17 16 14 11 8 8 9 11 12 12 10 7 6 4 4 8 10 12 14 13 15 16 19 22 23 22 22 21 23 22 24 25 24 21 20 21 22
16 16 17 16 17 18 19 17 13 10 8 10 10 10 10 9 7 5 1 3 4 7 8 9 10 12 15 17 17 20 21 21 21 21 22 20 23 25 25 22 20 21 23
17 15 16 17 16 14 15 18 15 11 9 7 6 6 5 6 5 4 2 3 4 5 6 9 11 13 14 15 16 20 20 21 20 21 22 20 22 24 25 24 21 22 23
13 13 13 12 12 14 14 12 12 13 8 8 4 5 5 4 4 3 3 2 3 5 8 7 8 11 13 13 13 16 20 22 20 20 21 21 22 21 24 23 25 24 23
9 12 12 12 11 11 12 14 11 10 9 7 7 7 7 5 4 2 4 4 5 7 7 8 11 14 13 11 14 16 20 20 20 20 21 21 22 21 21 22 23 24 25
7 7 8 10 10 10 10 11 12 12 11 10 9 8 8 6 3 2 4 6 8 10 10 9 13 14 14 13 13 16 20 20 20 22 22 20 20 21 22 22 22 23 23
8 8 8 10 10 8 7 9 9 10 10 12 10 9 7 5 3 6 6 8 12 12 11 12 14 11 12 10 14 13 16 19 19 19 20 18 19 19 21 22 22 24 24
7 7 7 8 8 7 7 7 8 8 9 11 9 7 8 8 7 7 8 9 11 11 12 13 13 11 10 9 11 13 16 17 18 19 19 15 17 18 21 23 25 25 25
7 7 7 7 7 5 5 7 7 8 8 10 12 10 9 10 7 5 7 9 14 13 10 9 12 11 8 10 12 15 18 18 17 18 16 13 13 16 17 20 22 23 24
8 8 7 7 8 8 7 7 8 7 6 7 9 10 10 10 9 9 8 9 12 10 10 6 5 6 7 12 14 15 17 17 16 15 15 13 13 14 16 18 21 23 23
11 12 11 10 10 10 10 9 8 7 6 7 6 6 6 6 7 9 7 8 8 10 10 9 9 11 11 13 14 16 16 16 14 14 14 13 12 13 15 17 18 21 20
13 13 12 12 12 10 10 11 10 8 8 9 8 6 6 6 9 9 7 9 9 9 8 10 12 15 13 13 13 15 15 14 14 14 12 12 11 12 14 16 16 16 16
14 13 12 12 13 12 12 14 14 12 11 11 11 9 8 9 9 12 12 12 11 12 13 13 14 15 15 16 16 15 16 14 13 14 16 16 15 13 12 12 13 14 15
15 14 13 15 12 14 14 16 17 14 14 14 14 13 13 14 14 14 15 16 16 17 18 16 15 15 14 16 16 16 16 16 16 15 15 16 17 17 13 14 14 13 14
17 17 15 16 16 15 17 20 21 18 17 17 17 15 16 16 16 15 16 16 18 18 18 17 16 15 17 16 19 21 18 19 17 15 18 19 18 17 16 17 18 17 18
25 22 21 21 21 20 21 22 23 21 21 24 23 19 18 20 20 18 19 21 19 19 19 19 18 17 19 20 19 21 22 20 19 19 19 20 20 19 20 21 21 21 22
31 27 25 26 25 26 25 23 24 24 24 20 19 17 18 19 20 22 24 24 22 20 19 19 21 22 21 23 22 23 23 23 22 22 23 25 23 22 25 25 26 26 27
30 29 28 24 23 25 28 30 28 27 26 22 23 22 22 21 21 22 19 24 24 24 23 22 23 24 25 25 25 25 25 23 26 28 28 31 31 29 30 31 30 29 31
35 32 29 31 28 29 30 31 32 28 27 27 29 29 28 27 25 25 24 24 28 29 27 28 28 31 32 32 31 30 31 29 29 31 33 34 38 37 33 35 35 33 34
40 32 29 30 31 32 32 29 37 33 33 32 34 31 29 29 29 30 29 29 32 34 33 33 36 35 34 34 36 37 34 35 35 35 35 34 37 41 41 38 39 38 38
32 29 32 32 36 34 33 33 31 26 30 26 31 25 26 32 32 32 34 34 36 36 36 38 37 37 39 39 39 39 43 45 41 39 39 38 37 38 41 43 42 40 35
Wind_Direction
126 139 149 147 148 143 142 146 150 144 137 137 129 127 123 130 128 123 123 122 122 120 111 99 82 70 59 50 42 29 20 15 12 8 8 10 7 3 3 1 358 354 351
136 116 142 144 146 141 143 151 154 148 142 140 137 130 127 131 128 122 123 125 124 116 107 94 85 71 60 50 36 24 17 13 10 13 16 13 13 8 1 358 353 354 357
104 128 129 140 153 143 146 155 158 148 140 145 146 139 135 134 126 120 122 119 114 115 107 102 80 70 57 40 28 22 17 11 20 25 23 21 14 11 8 3 358 8 13
110 111 115 121 140 149 153 157 158 148 147 150 149 142 143 136 131 134 132 128 123 108 89 71 54 52 44 32 20 18 15 20 23 26 22 15 15 17 14 10 11 15 15
107 101 100 102 122 144 150 150 151 151 146 146 152 145 151 137 143 149 141 141 138 101 58 44 28 23 27 25 21 18 16 18 20 22 17 13 22 24 21 20 17 15 16
103 108 108 104 110 128 137 144 145 148 138 160 166 155 155 155 148 163 156 121 67 57 34 29 17 13 12 12 16 14 11 16 20 17 18 17 29 29 28 28 20 16 17
108 108 104 116 114 126 133 136 146 162 164 182 181 176 160 165 170 172 160 62 49 34 34 20 11 3 4 3 10 6 13 13 17 15 17 23 34 34 34 35 23 17 19
113 100 107 112 126 132 136 139 148 165 172 181 189 193 184 183 188 161 145 40 350 17 12 13 356 348 344 357 5 5 7 15 16 13 12 19 35 37 39 39 32 23 23
122 107 110 111 113 133 139 144 155 160 172 176 184 205 214 197 227 211 235 265 300 326 338 337 328 332 334 357 357 359 4 11 12 9 7 12 33 33 40 38 38 33 28
126 115 115 126 129 134 137 145 150 158 172 181 181 205 205 194 215 248 271 290 283 290 304 319 327 327 323 358 344 349 360 7 7 6 3 12 29 27 31 30 31 35 36
116 106 122 123 135 149 151 148 156 157 157 166 185 204 204 200 185 238 262 281 276 279 283 293 310 297 311 347 328 350 353 0 5 7 3 12 23 27 26 23 24 25 27
140 137 130 138 142 158 162 169 162 159 166 176 182 201 207 207 219 233 238 285 294 261 266 267 271 279 308 323 333 332 350 360 1 2 3 15 25 30 33 30 27 26 22
151 151 150 151 159 156 163 177 182 168 179 187 187 210 216 222 225 241 269 275 269 264 259 260 272 279 298 317 311 336 351 357 1 3 11 17 33 32 38 38 35 32 28
186 186 177 174 165 179 183 186 201 193 189 198 208 230 237 239 251 235 271 270 276 276 256 253 271 286 300 311 326 340 346 355 360 360 11 12 33 34 33 36 32 32 34
208 213 214 200 194 192 209 213 211 217 204 191 198 214 227 237 249 254 262 278 273 270 267 260 293 272 311 320 323 332 342 348 354 350 359 9 18 27 24 26 26 25 26
207 218 214 222 212 204 210 224 232 224 231 233 223 215 236 247 252 251 254 261 272 265 273 264 300 303 310 309 318 326 333 340 345 348 352 350 2 8 14 19 20 18 16
219 221 220 222 222 226 224 233 232 238 236 242 247 238 233 248 259 277 272 260 249 249 260 269 270 272 288 295 309 319 320 322 334 340 341 343 351 350 359 3 2 12 12
217 221 224 233 235 228 229 240 238 237 237 245 257 258 255 246 247 264 265 266 268 266 264 259 264 277 290 301 305 303 303 317 325 329 330 332 334 334 336 344 346 347 353
227 226 227 226 240 251 246 242 243 237 237 237 241 245 251 252 256 253 256 260 262 264 268 271 276 284 292 295 298 300 310 315 315 319 315 314 317 315 314 320 326 328 327
236 235 232 238 239 239 250 255 254 252 255 254 252 252 260 266 267 267 264 264 267 270 275 281 282 288 290 295 301 303 304 304 308 311 305 305 308 308 305 307 313 320 324
243 242 242 244 246 243 244 250 254 258 256 261 249 251 262 268 266 263 270 267 270 273 277 281 286 284 285 289 288 292 297 298 299 303 301 300 302 301 298 299 304 311 313
238 243 241 243 245 252 254 251 255 256 254 262 256 260 261 274 271 268 266 267 271 271 273 279 283 288 287 286 286 286 290 297 299 298 297 294 293 292 294 297 300 303 305
239 238 237 241 245 252 258 256 254 258 262 260 258 262 262 262 270 266 279 256 262 263 271 276 275 274 275 276 280 283 286 288 290 292 293 294 293 294 295 295 296 299 300
238 238 238 241 240 258 254 255 251 251 251 247 253 257 260 266 267 268 275 272 264 266 271 271 274 279 278 278 278 281 283 282 281 281 283 286 290 291 288 289 290 290 293
233 235 244 249 252 257 255 262 253 240 252 252 250 256 265 267 268 273 271 265 266 269 273 273 278 280 280 284 284 285 282 285 287 281 280 282 285 288 288 287 289 290 292
230 230 239 250 248 249 254 266 256 240 255 257 249 253 264 269 269 270 271 279 277 271 271 273 271 275 276 278 279 281 283 284 285 283 281 282 279 279 285 289 293 293 293
Height
5912 5913 5915 5917 5919 5920 5922 5924 5926 5926 5927 5929 5930 5931 5931 5934 5934 5933 5933 5932 5933 5934 5935 5936 5936 5936 5935 5935 5933 5931 5929 5927 5924 5920 5916 5912 5908 5905 5902 5899 5896 5893 5890
5913 5913 5915 5917 5919 5921 5924 5927 5928 5929 5931 5932 5932 5932 5933 5936 5938 5936 5935 5934 5935 5937 5938 5938 5937 5937 5937 5936 5934 5933 5931 5928 5925 5921 5917 5914 5909 5905 5901 5898 5895 5892 5889
5915 5915 5917 5919 5919 5921 5923 5927 5929 5931 5933 5935 5935 5935 5937 5938 5939 5938 5938 5938 5939 5940 5940 5940 5939 5939 5938 5937 5935 5933 5931 5929 5925 5921 5917 5914 5910 5905 5901 5897 5894 5891 5889
5918 5919 5920 5920 5921 5923 5924 5928 5931 5933 5936 5938 5940 5940 5940 5940 5940 5939 5939 5940 5941 5942 5943 5943 5943 5942 5941 5939 5937 5934 5931 5928 5925 5922 5918 5914 5910 5906 5902 5898 5895 5892 5889
5922 5922 5922 5923 5923 5926 5928 5931 5934 5937 5939 5940 5942 5942 5944 5944 5940 5940 5942 5943 5942 5945 5946 5947 5946 5946 5944 5941 5938 5935 5930 5928 5925 5923 5919 5915 5911 5907 5903 5899 5896 5893 5891
5924 5926 5926 5926 5927 5928 5931 5933 5936 5940 5942 5943 5944 5944 5945 5945 5945 5945 5947 5948 5949 5949 5950 5949 5949 5948 5947 5943 5941 5937 5933 5930 5927 5924 5921 5917 5913 5908 5904 5900 5897 5894 5891
5927 5928 5930 5929 5930 5931 5933 5936 5939 5940 5942 5945 5945 5945 5947 5948 5946 5948 5951 5952 5953 5952 5952 5951 5950 5949 5947 5946 5942 5939 5934 5931 5928 5925 5922 5919 5913 5910 5906 5902 5899 5896 5893
5930 5932 5932 5933 5932 5935 5936 5937 5939 5942 5945 5946 5947 5949 5948 5949 5950 5951 5952 5953 5954 5954 5953 5953 5951 5950 5948 5946 5944 5940 5936 5932 5929 5927 5923 5920 5914 5912 5907 5904 5901 5899 5895
5933 5934 5933 5934 5935 5937 5939 5940 5941 5943 5946 5947 5949 5951 5949 5950 5951 5953 5952 5953 5954 5953 5953 5953 5952 5951 5948 5947 5946 5942 5938 5934 5931 5928 5925 5921 5916 5914 5910 5907 5904 5901 5898
5934 5934 5935 5936 5937 5938 5939 5940 5942 5943 5946 5948 5949 5949 5949 5950 5950 5952 5952 5954 5953 5953 5952 5952 5952 5951 5948 5948 5947 5944 5939 5935 5932 5930 5927 5923 5918 5916 5912 5909 5907 5904 5900
5933 5935 5936 5938 5938 5939 5940 5941 5941 5943 5945 5947 5950 5949 5950 5951 5952 5952 5953 5954 5954 5952 5952 5952 5952 5950 5948 5947 5947 5944 5940 5937 5933 5932 5930 5924 5920 5917 5914 5911 5908 5905 5902
5934 5935 5936 5938 5939 5940 5941 5942 5943 5944 5946 5947 5948 5949 5950 5952 5952 5951 5952 5953 5952 5951 5951 5951 5951 5949 5948 5948 5946 5945 5941 5937 5934 5932 5929 5925 5921 5919 5915 5912 5909 5907 5903
5935 5936 5936 5938 5939 5939 5941 5943 5944 5946 5947 5947 5948 5949 5950 5950 5950 5950 5951 5950 5950 5950 5950 5949 5949 5949 5948 5946 5946 5944 5941 5936 5934 5933 5930 5927 5922 5921 5918 5914 5911 5908 5905
5934 5936 5937 5937 5938 5940 5942 5943 5944 5946 5946 5947 5948 5949 5950 5949 5949 5948 5949 5948 5948 5948 5949 5949 5948 5948 5947 5947 5945 5943 5941 5937 5934 5933 5930 5928 5924 5922 5918 5915 5912 5910 5907
5933 5936 5937 5937 5939 5940 5943 5944 5944 5945 5945 5946 5946 5947 5948 5947 5948 5948 5948 5947 5947 5947 5948 5948 5948 5947 5947 5947 5945 5941 5939 5937 5935 5933 5931 5928 5925 5922 5920 5917 5914 5912 5910
5932 5934 5936 5938 5938 5939 5940 5941 5943 5945 5946 5945 5946 5947 5947 5947 5947 5947 5946 5946 5946 5946 5946 5946 5947 5946 5946 5946 5943 5940 5938 5935 5934 5933 5931 5928 5926 5923 5920 5918 5916 5913 5911
5930 5932 5933 5936 5938 5939 5938 5939 5940 5942 5944 5946 5945 5946 5947 5947 5947 5947 5947 5946 5946 5944 5943 5944 5945 5944 5943 5942 5940 5938 5936 5934 5932 5931 5928 5926 5924 5923 5920 5918 5916 5914 5912
5928 5931 5933 5934 5935 5936 5937 5939 5939 5940 5941 5942 5942 5943 5943 5944 5946 5946 5946 5946 5945 5944 5943 5944 5943 5942 5941 5939 5936 5935 5934 5932 5931 5928 5924 5922 5921 5921 5920 5917 5916 5914 5912
5926 5928 5930 5932 5932 5934 5935 5936 5937 5939 5940 5939 5938 5938 5939 5941 5942 5943 5944 5943 5942 5942 5943 5943 5942 5941 5939 5936 5934 5934 5932 5931 5930 5926 5923 5921 5919 5918 5917 5915 5914 5912 5911
5923 5924 5925 5927 5928 5930 5931 5933 5934 5934 5935 5935 5935 5935 5935 5936 5937 5938 5938 5938 5938 5939 5939 5939 5938 5938 5936 5933 5932 5931 5930 5928 5927 5925 5921 5918 5918 5917 5914 5912 5911 5910 5909
5919 5920 5921 5922 5923 5924 5926 5927 5928 5929 5930 5929 5930 5930 5931 5931 5932 5933 5933 5932 5933 5934 5934 5934 5934 5932 5931 5931 5930 5927 5925 5924 5922 5919 5917 5915 5915 5914 5911 5909 5908 5908 5905
5912 5912 5914 5916 5916 5917 5919 5921 5922 5923 5922 5924 5925 5925 5926 5925 5926 5927 5926 5927 5927 5927 5929 5930 5929 5928 5928 5926 5925 5923 5922 5921 5918 5916 5913 5910 5910 5909 5906 5904 5903 5903 5900
5903 5905 5907 5909 5910 5911 5913 5914 5915 5917 5918 5918 5918 5919 5919 5919 5920 5920 5919 5920 5921 5921 5921 5923 5922 5920 5918 5917 5918 5918 5917 5917 5913 5910 5908 5903 5901 5902 5900 5897 5897 5896 5894
5897 5899 5901 5902 5903 5905 5906 5907 5909 5909 5911 5911 5911 5911 5912 5912 5912 5913 5914 5914 5913 5913 5915 5914 5914 5913 5912 5911 5910 5908 5908 5908 5908 5905 5902 5899 5892 5893 5894 5891 5889 5888 5886
5889 5891 5893 5894 5896 5896 5898 5898 5897 5900 5902 5903 5903 5903 5904 5904 5903 5904 5904 5904 5905 5906 5907 5908 5907 5906 5905 5904 5902 5900 5898 5895 5897 5897 5894 5892 5888 5883 5881 5881 5879 5879 5877
5878 5880 5884 5886 5886 5887 5889 5888 5890 5891 5893 5894 5895 5895 5895 5896 5896 5895 5895 5895 5896 5897 5897 5897 5897 5895 5895 5893 5891 5890 5889 5887 5885 5884 5884 5884 5880 5877 5872 5869 5869 5867 5865